Time,TemperatureF,DewpointF,PressureIn,WindDirection,WindDirectionDegrees,WindSpeedMPH,WindSpeedGustMPH,Humidity,HourlyPrecipIn,Conditions,Clouds,dailyrainin,SoftwareType,DateUTC
2013-03-20 00:12:00,45.0,28.0,-100.00,NW,308,2.0,11.0,52,0.00,,,0.00,,2013-03-20 07:12:00,
2013-03-20 00:22:00,45.0,28.0,-100.00,NW,308,2.0,11.0,52,0.00,,,0.00,,2013-03-20 07:22:00,
2013-03-20 00:32:00,45.0,28.0,-100.00,NW,308,2.0,11.0,52,0.00,,,0.00,,2013-03-20 07:32:00,
2013-03-20 00:42:00,45.0,28.0,-100.00,NW,308,2.0,11.0,52,0.00,,,0.00,,2013-03-20 07:42:00,
2013-03-20 00:52:00,45.0,28.0,-100.00,NW,308,2.0,11.0,52,0.00,,,0.00,,2013-03-20 07:52:00,
2013-03-20 01:22:00,45.0,33.0,-100.00,WNW,299,6.0,13.0,62,0.00,,,0.00,,2013-03-20 08:22:00,
2013-03-20 01:32:00,45.0,33.0,-100.00,WNW,299,6.0,13.0,62,0.00,,,0.00,,2013-03-20 08:32:00,
2013-03-20 01:42:00,45.0,33.0,-100.00,WNW,299,6.0,13.0,62,0.00,,,0.00,,2013-03-20 08:42:00,
2013-03-20 01:51:00,45.0,33.0,-100.00,WNW,299,6.0,13.0,62,0.00,,,0.00,,2013-03-20 08:51:00,
2013-03-20 02:12:00,43.0,32.0,-100.00,WNW,299,7.0,12.0,64,0.00,,,0.00,,2013-03-20 09:12:00,
2013-03-20 02:22:00,43.0,32.0,-100.00,WNW,299,7.0,12.0,64,0.00,,,0.00,,2013-03-20 09:22:00,
2013-03-20 02:32:00,43.0,32.0,-100.00,WNW,299,7.0,12.0,64,0.00,,,0.00,,2013-03-20 09:32:00,
2013-03-20 02:43:00,43.0,32.0,-100.00,WNW,299,7.0,12.0,64,0.00,,,0.00,,2013-03-20 09:43:00,
2013-03-20 02:52:00,43.0,32.0,-100.00,WNW,299,7.0,12.0,64,0.00,,,0.00,,2013-03-20 09:52:00,
2013-03-20 03:12:00,42.0,34.0,-100.00,NW,306,5.0,12.0,73,0.00,,,0.00,,2013-03-20 10:12:00,
2013-03-20 03:22:00,42.0,34.0,-100.00,NW,306,5.0,12.0,73,0.00,,,0.00,,2013-03-20 10:22:00,
2013-03-20 03:32:00,42.0,34.0,-100.00,NW,306,5.0,12.0,73,0.00,,,0.00,,2013-03-20 10:32:00,
2013-03-20 03:42:00,42.0,34.0,-100.00,NW,306,5.0,12.0,73,0.00,,,0.00,,2013-03-20 10:42:00,
2013-03-20 03:52:00,42.0,34.0,-100.00,NW,306,5.0,12.0,73,0.00,,,0.00,,2013-03-20 10:52:00,
2013-03-20 04:22:00,42.0,35.0,-100.00,NW,318,6.0,11.0,76,0.00,,,0.00,,2013-03-20 11:22:00,
2013-03-20 04:32:00,42.0,35.0,-100.00,NW,318,6.0,11.0,76,0.00,,,0.00,,2013-03-20 11:32:00,
2013-03-20 04:42:00,42.0,35.0,-100.00,NW,318,6.0,11.0,76,0.00,,,0.00,,2013-03-20 11:42:00,
2013-03-20 04:52:00,42.0,35.0,-100.00,NW,318,6.0,11.0,76,0.00,,,0.00,,2013-03-20 11:52:00,
2013-03-20 05:22:00,42.0,34.0,-100.00,NW,322,5.0,10.0,74,0.00,,,0.00,,2013-03-20 12:22:00,
2013-03-20 05:32:00,42.0,34.0,-100.00,NW,322,5.0,10.0,74,0.00,,,0.00,,2013-03-20 12:32:00,
2013-03-20 05:42:00,42.0,34.0,-100.00,NW,322,5.0,10.0,74,0.00,,,0.00,,2013-03-20 12:42:00,
2013-03-20 05:52:00,42.0,34.0,-100.00,NW,322,5.0,10.0,74,0.00,,,0.00,,2013-03-20 12:52:00,
2013-03-20 06:22:00,43.0,35.0,-100.00,WNW,296,5.0,11.0,74,0.00,,,0.00,,2013-03-20 13:22:00,
2013-03-20 06:32:00,43.0,35.0,-100.00,WNW,296,5.0,11.0,74,0.00,,,0.00,,2013-03-20 13:32:00,
2013-03-20 06:42:00,43.0,35.0,-100.00,WNW,296,5.0,11.0,74,0.00,,,0.00,,2013-03-20 13:42:00,
2013-03-20 06:52:00,43.0,35.0,-100.00,WNW,296,5.0,11.0,74,0.00,,,0.00,,2013-03-20 13:52:00,
2013-03-20 07:12:00,43.0,35.0,-100.00,WNW,294,6.0,10.0,72,0.00,,,0.00,,2013-03-20 14:12:00,
2013-03-20 07:22:00,43.0,35.0,-100.00,WNW,294,6.0,10.0,72,0.00,,,0.00,,2013-03-20 14:22:00,
2013-03-20 07:33:00,43.0,35.0,-100.00,WNW,294,6.0,10.0,72,0.00,,,0.00,,2013-03-20 14:33:00,
2013-03-20 07:42:00,43.0,35.0,-100.00,WNW,294,6.0,10.0,72,0.00,,,0.00,,2013-03-20 14:42:00,
2013-03-20 07:51:00,43.0,35.0,-100.00,WNW,294,6.0,10.0,72,0.00,,,0.00,,2013-03-20 14:51:00,
2013-03-20 08:12:00,44.0,36.0,-100.00,WNW,294,7.0,13.0,72,0.00,,,0.00,,2013-03-20 15:12:00,
2013-03-20 08:22:00,44.0,36.0,-100.00,WNW,294,7.0,13.0,72,0.00,,,0.00,,2013-03-20 15:22:00,
2013-03-20 08:33:00,44.0,36.0,-100.00,WNW,294,7.0,13.0,72,0.00,,,0.00,,2013-03-20 15:33:00,
2013-03-20 08:43:00,44.0,36.0,-100.00,WNW,294,7.0,13.0,72,0.00,,,0.00,,2013-03-20 15:43:00,
2013-03-20 08:52:00,44.0,36.0,-100.00,WNW,294,7.0,13.0,72,0.00,,,0.00,,2013-03-20 15:52:00,
2013-03-20 09:12:00,44.0,37.0,-100.00,WNW,298,7.0,15.0,75,0.00,,,0.00,,2013-03-20 16:12:00,
2013-03-20 09:23:00,44.0,37.0,-100.00,WNW,298,7.0,15.0,75,0.00,,,0.00,,2013-03-20 16:23:00,
2013-03-20 09:32:00,44.0,37.0,-100.00,WNW,298,7.0,15.0,75,0.00,,,0.00,,2013-03-20 16:32:00,
2013-03-20 09:42:00,44.0,37.0,-100.00,WNW,298,7.0,15.0,75,0.00,,,0.00,,2013-03-20 16:42:00,
2013-03-20 09:52:00,44.0,37.0,-100.00,WNW,298,7.0,15.0,75,0.00,,,0.00,,2013-03-20 16:52:00,
2013-03-20 10:12:00,45.0,37.0,-100.00,WNW,293,8.0,16.0,73,0.00,,,0.00,,2013-03-20 17:12:00,
2013-03-20 10:22:00,45.0,37.0,-100.00,WNW,293,8.0,16.0,73,0.00,,,0.00,,2013-03-20 17:22:00,
2013-03-20 10:32:00,45.0,37.0,-100.00,WNW,293,8.0,16.0,73,0.00,,,0.00,,2013-03-20 17:32:00,
2013-03-20 10:42:00,45.0,37.0,-100.00,WNW,293,8.0,16.0,73,0.00,,,0.00,,2013-03-20 17:42:00,
2013-03-20 10:52:00,45.0,37.0,-100.00,WNW,293,8.0,16.0,73,0.00,,,0.00,,2013-03-20 17:52:00,
2013-03-20 11:12:00,50.0,38.0,-100.00,WNW,290,8.0,14.0,62,0.00,,,0.00,,2013-03-20 18:12:00,
2013-03-20 11:22:00,50.0,38.0,-100.00,WNW,290,8.0,14.0,62,0.00,,,0.00,,2013-03-20 18:22:00,
2013-03-20 11:32:00,50.0,38.0,-100.00,WNW,290,8.0,14.0,62,0.00,,,0.00,,2013-03-20 18:32:00,
2013-03-20 11:42:00,50.0,38.0,-100.00,WNW,290,8.0,14.0,62,0.00,,,0.00,,2013-03-20 18:42:00,
2013-03-20 11:52:00,50.0,38.0,-100.00,WNW,290,8.0,14.0,62,0.00,,,0.00,,2013-03-20 18:52:00,
2013-03-20 12:22:00,50.0,36.0,-100.00,WNW,287,9.0,16.0,59,0.00,,,0.00,,2013-03-20 19:22:00,
2013-03-20 12:32:00,50.0,36.0,-100.00,WNW,287,9.0,16.0,59,0.00,,,0.00,,2013-03-20 19:32:00,
2013-03-20 12:42:00,50.0,36.0,-100.00,WNW,287,9.0,16.0,59,0.00,,,0.00,,2013-03-20 19:42:00,
2013-03-20 12:52:00,50.0,36.0,-100.00,WNW,287,9.0,16.0,59,0.00,,,0.00,,2013-03-20 19:52:00,
2013-03-20 13:12:00,51.0,38.0,-100.00,WNW,293,10.0,21.0,61,0.00,,,0.00,,2013-03-20 20:12:00,
2013-03-20 13:22:00,51.0,38.0,-100.00,WNW,293,10.0,21.0,61,0.00,,,0.00,,2013-03-20 20:22:00,
2013-03-20 13:32:00,51.0,38.0,-100.00,WNW,293,10.0,21.0,61,0.00,,,0.00,,2013-03-20 20:32:00,
2013-03-20 13:42:00,51.0,38.0,-100.00,WNW,293,10.0,21.0,61,0.00,,,0.00,,2013-03-20 20:42:00,
2013-03-20 13:52:00,51.0,38.0,-100.00,WNW,293,10.0,21.0,61,0.00,,,0.00,,2013-03-20 20:52:00,
2013-03-20 14:12:00,52.0,36.0,-100.00,WNW,297,10.0,18.0,55,0.00,,,0.00,,2013-03-20 21:12:00,
2013-03-20 14:22:00,52.0,36.0,-100.00,WNW,297,10.0,18.0,55,0.00,,,0.00,,2013-03-20 21:22:00,
2013-03-20 14:33:00,52.0,36.0,-100.00,WNW,297,10.0,18.0,55,0.00,,,0.00,,2013-03-20 21:33:00,
2013-03-20 14:42:00,52.0,36.0,-100.00,WNW,297,10.0,18.0,55,0.00,,,0.00,,2013-03-20 21:42:00,
2013-03-20 14:52:00,52.0,36.0,-100.00,WNW,297,10.0,18.0,55,0.00,,,0.00,,2013-03-20 21:52:00,
2013-03-20 15:23:00,51.0,35.0,-100.00,WNW,287,10.0,19.0,55,0.00,,,0.00,,2013-03-20 22:23:00,
2013-03-20 15:32:00,51.0,35.0,-100.00,WNW,287,10.0,19.0,55,0.00,,,0.00,,2013-03-20 22:32:00,
2013-03-20 15:42:00,51.0,35.0,-100.00,WNW,287,10.0,19.0,55,0.00,,,0.00,,2013-03-20 22:42:00,
2013-03-20 15:52:00,51.0,35.0,-100.00,WNW,287,10.0,19.0,55,0.00,,,0.00,,2013-03-20 22:52:00,
2013-03-20 16:12:00,49.0,35.0,-100.00,WNW,285,9.0,18.0,58,0.00,,,0.00,,2013-03-20 23:12:00,
2013-03-20 16:22:00,49.0,35.0,-100.00,WNW,285,9.0,18.0,58,0.00,,,0.00,,2013-03-20 23:22:00,
2013-03-20 16:32:00,49.0,35.0,-100.00,WNW,285,9.0,18.0,58,0.00,,,0.00,,2013-03-20 23:32:00,
2013-03-20 16:42:00,49.0,35.0,-100.00,WNW,285,9.0,18.0,58,0.00,,,0.00,,2013-03-20 23:42:00,
2013-03-20 16:52:00,49.0,35.0,-100.00,WNW,285,9.0,18.0,58,0.00,,,0.00,,2013-03-20 23:52:00,
2013-03-20 17:12:00,47.0,35.0,-100.00,WNW,285,9.0,18.0,64,0.00,,,0.00,,2013-03-21 00:12:00,
2013-03-20 17:22:00,47.0,35.0,-100.00,WNW,285,9.0,18.0,64,0.00,,,0.00,,2013-03-21 00:22:00,
2013-03-20 17:32:00,47.0,35.0,-100.00,WNW,285,9.0,18.0,64,0.00,,,0.00,,2013-03-21 00:32:00,
2013-03-20 17:42:00,47.0,35.0,-100.00,WNW,285,9.0,18.0,64,0.00,,,0.00,,2013-03-21 00:42:00,
2013-03-20 17:52:00,47.0,35.0,-100.00,WNW,285,9.0,18.0,64,0.00,,,0.00,,2013-03-21 00:52:00,
2013-03-20 18:12:00,46.0,33.0,-100.00,WNW,296,8.0,15.0,60,0.00,,,0.00,,2013-03-21 01:12:00,
2013-03-20 18:22:00,46.0,33.0,-100.00,WNW,296,8.0,15.0,60,0.00,,,0.00,,2013-03-21 01:22:00,
2013-03-20 18:32:00,46.0,33.0,-100.00,WNW,296,8.0,15.0,60,0.00,,,0.00,,2013-03-21 01:32:00,
2013-03-20 18:42:00,46.0,33.0,-100.00,WNW,296,8.0,15.0,60,0.00,,,0.00,,2013-03-21 01:42:00,
2013-03-20 18:52:00,46.0,33.0,-100.00,WNW,296,8.0,15.0,60,0.00,,,0.00,,2013-03-21 01:52:00,
2013-03-20 19:22:00,44.0,34.0,-100.00,WNW,294,8.0,16.0,68,0.00,,,0.00,,2013-03-21 02:22:00,
2013-03-20 19:32:00,44.0,34.0,-100.00,WNW,294,8.0,16.0,68,0.00,,,0.00,,2013-03-21 02:32:00,
2013-03-20 19:42:00,44.0,34.0,-100.00,WNW,294,8.0,16.0,68,0.00,,,0.00,,2013-03-21 02:42:00,
2013-03-20 19:51:00,44.0,34.0,-100.00,WNW,294,8.0,16.0,68,0.00,,,0.00,,2013-03-21 02:51:00,
2013-03-20 20:12:00,43.0,35.0,-100.00,WNW,295,6.0,17.0,72,0.00,,,0.00,,2013-03-21 03:12:00,
2013-03-20 20:22:00,43.0,35.0,-100.00,WNW,295,6.0,17.0,72,0.00,,,0.00,,2013-03-21 03:22:00,
2013-03-20 20:32:00,43.0,35.0,-100.00,WNW,295,6.0,17.0,72,0.00,,,0.00,,2013-03-21 03:32:00,
2013-03-20 20:43:00,43.0,35.0,-100.00,WNW,295,6.0,17.0,72,0.00,,,0.00,,2013-03-21 03:43:00,
2013-03-20 20:52:00,43.0,35.0,-100.00,WNW,295,6.0,17.0,72,0.00,,,0.00,,2013-03-21 03:52:00,
2013-03-20 21:22:00,42.0,33.0,-100.00,WNW,290,6.0,11.0,71,0.00,,,0.00,,2013-03-21 04:22:00,
2013-03-20 21:32:00,42.0,33.0,-100.00,WNW,290,6.0,11.0,71,0.00,,,0.00,,2013-03-21 04:32:00,
2013-03-20 21:43:00,42.0,33.0,-100.00,WNW,290,6.0,11.0,71,0.00,,,0.00,,2013-03-21 04:43:00,
2013-03-20 21:52:00,42.0,33.0,-100.00,WNW,290,6.0,11.0,71,0.00,,,0.00,,2013-03-21 04:52:00,
2013-03-20 22:22:00,41.0,37.0,-100.00,WNW,290,6.0,12.0,84,0.00,,,0.00,,2013-03-21 05:22:00,
2013-03-20 22:32:00,41.0,37.0,-100.00,WNW,290,6.0,12.0,84,0.00,,,0.00,,2013-03-21 05:32:00,
2013-03-20 22:43:00,41.0,37.0,-100.00,WNW,290,6.0,12.0,84,0.00,,,0.00,,2013-03-21 05:43:00,
2013-03-20 22:51:00,41.0,37.0,-100.00,WNW,290,6.0,12.0,84,0.00,,,0.00,,2013-03-21 05:51:00,
2013-03-20 23:22:00,41.0,36.0,-100.00,WNW,300,7.0,16.0,81,0.00,,,0.00,,2013-03-21 06:22:00,
2013-03-20 23:32:00,41.0,36.0,-100.00,WNW,300,7.0,16.0,81,0.00,,,0.00,,2013-03-21 06:32:00,
2013-03-20 23:42:00,41.0,36.0,-100.00,WNW,300,7.0,16.0,81,0.00,,,0.00,,2013-03-21 06:42:00,
2013-03-20 23:52:00,41.0,36.0,-100.00,WNW,300,7.0,16.0,81,0.00,,,0.00,,2013-03-21 06:52:00,